カタログに戻る

ARIANE 5 DEB

SYLDA

運用中GTO
NORAD 28887·DEBRIS·🇫🇷 France

打ち上げ Oct 13, 2005 から Guiana Space Centre

Loading…

TLE

古いSource: Space-Track

元期: Sep 13, 2026, 16:08 UTC

1 28887U 05041D   26256.67274005  .00000055  00000-0  14509-2 0  9996
2 28887   7.0922 119.9051 7160907 182.0902 171.3797  2.27530179173016

AllMySatでARIANE 5 DEBをリアルタイム追跡

Download on the App Store